Auburn, IN

4:19 AM EDT on September 20, 2019 (GMT -0400)
Auburn

Weather History for KGWB - August, 2019

Change the Weather History Date:

Sunday, August 18, 2019

  Actual Average (KFWA) Record (KFWA)
Temperature  
Mean Temperature 76 °F -  
Max Temperature 84 °F 83 °F 95 °F (1947)
Min Temperature 68 °F 60 °F 46 °F (1963)
Cooling Degree Days 11    
Growing Degree Days 26 (Base 50)    
Moisture  
Dew Point 70 °F    
Average Humidity 90    
Maximum Humidity 100    
Minimum Humidity 70    
Precipitation  
Precipitation 0.67 in - - ()
Sea Level Pressure  
Sea Level Pressure 29.92 in    
Wind  
Wind Speed 2 mph (SW)    
Max Wind Speed 20 mph    
Max Gust Speed 24 mph    
Visibility 10 miles    
Events Rain    
Averages and records for this station are not official NWS values.
T = Trace of Precipitation, MM = Missing Value Source: NWS Daily Summary

Daily Weather History Graph

Daily Weather History Graph

Search for Another Location

Airport or City:

Astronomy

Aug. 18, 2019 Rise Set
Actual Time 6:52 AM EDT 8:35 PM EDT
Civil Twilight 6:22 AM EDT 9:04 PM EDT
Nautical Twilight 5:47 AM EDT 9:40 PM EDT
Astronomical Twilight 5:08 AM EDT 10:18 PM EDT
Moon 10:27 PM EDT (8/18) 9:37 AM EDT (8/18)
Length of Visible Light 14h 41m
Length of Day
13h 42m
Waning Gibbous, 91% of the Moon is Illuminated
Aug 18
Waning Gibbous
Aug 23
Last Quarter
Aug 30
New
Sep 5
First Quarter
Sep 14
Full

Hourly Weather History & Observations

Time (EDT) Temp. Heat Index Dew Point Humidity Pressure Visibility Wind Dir Wind Speed Gust Speed Precip Events Conditions
12:15 AM 71.6 °F - 68.0 °F 88% 29.95 in 10.0 mi Calm Calm - N/A   Scattered Clouds
12:35 AM 71.6 °F - 68.0 °F 88% 29.95 in 10.0 mi Calm Calm - N/A Rain Light Rain
12:55 AM 71.6 °F - 68.0 °F 88% 29.95 in 10.0 mi Calm Calm - N/A   Scattered Clouds
1:15 AM 71.6 °F - 68.0 °F 88% 29.95 in 10.0 mi Calm Calm - N/A   Scattered Clouds
1:35 AM 69.8 °F - 68.0 °F 94% 29.93 in 10.0 mi Calm Calm - N/A   Scattered Clouds
1:55 AM 69.8 °F - 68.0 °F 94% 29.93 in 10.0 mi Calm Calm - N/A   Scattered Clouds
2:15 AM 69.8 °F - 68.0 °F 94% 29.93 in 10.0 mi Calm Calm - N/A   Clear
2:35 AM 68.0 °F - 68.0 °F 100% 29.93 in 10.0 mi Calm Calm - N/A   Clear
2:55 AM 68.0 °F - 68.0 °F 100% 29.93 in 10.0 mi Calm Calm - N/A   Clear
3:15 AM 68.0 °F - 68.0 °F 100% 29.93 in 10.0 mi Calm Calm - N/A   Scattered Clouds
3:35 AM 68.0 °F - 68.0 °F 100% 29.93 in 10.0 mi Calm Calm - N/A Rain Light Rain
3:55 AM 68.0 °F - 68.0 °F 100% 29.93 in 10.0 mi Calm Calm - N/A   Overcast
4:15 AM 69.8 °F - 68.0 °F 94% 29.94 in 10.0 mi Calm Calm - N/A   Overcast
4:35 AM 69.8 °F - 68.0 °F 94% 29.94 in 10.0 mi Calm Calm - N/A   Mostly Cloudy
4:55 AM 69.8 °F - 68.0 °F 94% 29.93 in 10.0 mi Calm Calm - N/A   Scattered Clouds
5:15 AM 68.0 °F - 68.0 °F 100% 29.92 in 10.0 mi Calm Calm - N/A   Clear
5:35 AM 68.0 °F - 68.0 °F 100% 29.91 in 10.0 mi Calm Calm - N/A   Clear
5:55 AM 68.0 °F - 68.0 °F 100% 29.92 in 10.0 mi Calm Calm - N/A   Scattered Clouds
6:15 AM 68.0 °F - 68.0 °F 100% 29.91 in 10.0 mi Calm Calm - N/A   Mostly Cloudy
6:35 AM 68.0 °F - 68.0 °F 100% 29.91 in 10.0 mi Calm Calm - N/A   Scattered Clouds
6:55 AM 68.0 °F - 68.0 °F 100% 29.91 in 10.0 mi Calm Calm - N/A   Scattered Clouds
7:15 AM 68.0 °F - 68.0 °F 100% 29.91 in 10.0 mi Calm Calm - N/A   Clear
7:35 AM 68.0 °F - 68.0 °F 100% 29.91 in 10.0 mi Calm Calm - N/A   Clear
7:55 AM 69.8 °F - 68.0 °F 94% 29.93 in 10.0 mi Calm Calm - N/A   Scattered Clouds
8:15 AM 69.8 °F - 68.0 °F 94% 29.93 in 10.0 mi SSW 5.8 mph - N/A Rain Light Rain
8:35 AM 69.8 °F - 68.0 °F 94% 29.97 in 10.0 mi SSW 3.5 mph - N/A Rain Light Rain
8:55 AM 69.8 °F - 68.0 °F 94% 29.96 in 10.0 mi SSW 5.8 mph - N/A Rain Light Rain
9:15 AM 69.8 °F - 68.0 °F 94% 29.93 in 7.0 mi Calm Calm - 0.02 in Rain Rain
9:35 AM 68.0 °F - 68.0 °F 100% 29.92 in 10.0 mi Calm Calm - 0.04 in Rain Light Rain
9:55 AM 68.0 °F - 68.0 °F 100% 29.93 in 10.0 mi SSW 4.6 mph - 0.04 in Rain Light Rain
10:15 AM 69.8 °F - 69.8 °F 100% 29.93 in 10.0 mi South 3.5 mph - 0.01 in Rain Light Rain
10:35 AM 71.6 °F - 71.6 °F 100% 29.92 in 10.0 mi South 6.9 mph - 0.01 in   Clear
10:55 AM 73.4 °F - 71.6 °F 94% 29.91 in 10.0 mi SSW 6.9 mph - 0.01 in   Clear
11:15 AM 75.2 °F - 71.6 °F 89% 29.93 in 10.0 mi SSW 6.9 mph - N/A   Clear
11:35 AM 77.0 °F - 73.4 °F 89% 29.93 in 10.0 mi SW 9.2 mph - N/A   Clear
11:55 AM 78.8 °F - 73.4 °F 83% 29.93 in 10.0 mi SW 8.1 mph - N/A   Scattered Clouds
12:15 PM 78.8 °F - 73.4 °F 83% 29.93 in 10.0 mi SSW 9.2 mph - N/A   Scattered Clouds
12:35 PM 78.8 °F - 71.6 °F 78% 29.94 in 10.0 mi WSW 6.9 mph - N/A   Scattered Clouds
12:55 PM 78.8 °F - 73.4 °F 83% 29.94 in 10.0 mi Calm Calm - N/A   Scattered Clouds
1:15 PM 80.6 °F 85.4 °F 73.4 °F 79% 29.94 in 10.0 mi West 4.6 mph - N/A   Scattered Clouds
1:35 PM 80.6 °F 85.4 °F 73.4 °F 79% 29.93 in 10.0 mi WSW 6.9 mph - N/A   Scattered Clouds
1:55 PM 80.6 °F 85.4 °F 73.4 °F 79% 29.93 in 10.0 mi West 3.5 mph - N/A   Mostly Cloudy
2:15 PM 80.6 °F 85.4 °F 73.4 °F 79% 29.92 in 10.0 mi WNW 6.9 mph - N/A   Scattered Clouds
2:35 PM 80.6 °F 85.4 °F 73.4 °F 79% 29.92 in 10.0 mi West 3.5 mph - N/A   Mostly Cloudy
2:55 PM 80.6 °F 85.4 °F 73.4 °F 79% 29.91 in 10.0 mi Calm Calm - N/A   Scattered Clouds
3:15 PM 80.6 °F 85.4 °F 73.4 °F 79% 29.90 in 10.0 mi SW 3.5 mph - N/A   Scattered Clouds
3:35 PM 80.6 °F 85.4 °F 73.4 °F 79% 29.89 in 10.0 mi SSW 6.9 mph - N/A   Clear
3:55 PM 80.6 °F 84.6 °F 71.6 °F 74% 29.89 in 10.0 mi SSW 5.8 mph - N/A   Clear
4:15 PM 80.6 °F 84.6 °F 71.6 °F 74% 29.88 in 10.0 mi South 3.5 mph - N/A   Clear
4:35 PM 80.6 °F 85.4 °F 73.4 °F 79% 29.86 in 10.0 mi South 3.5 mph - N/A   Clear
4:55 PM 82.4 °F 88.2 °F 73.4 °F 74% 29.85 in 10.0 mi South 5.8 mph - N/A   Clear
5:15 PM 84.2 °F 90.9 °F 73.4 °F 70% 29.86 in 10.0 mi South 8.1 mph - N/A   Scattered Clouds
5:35 PM 82.4 °F 88.2 °F 73.4 °F 74% 29.86 in 10.0 mi South 5.8 mph - N/A   Scattered Clouds
5:55 PM 84.2 °F 90.9 °F 73.4 °F 70% 29.85 in 10.0 mi South 8.1 mph - N/A   Scattered Clouds
6:15 PM 84.2 °F 90.9 °F 73.4 °F 70% 29.85 in 10.0 mi SW 11.5 mph 16.1 mph N/A   Scattered Clouds
6:35 PM 84.2 °F 90.9 °F 73.4 °F 70% 29.85 in 10.0 mi SW 5.8 mph - N/A   Scattered Clouds
6:55 PM 82.4 °F 87.2 °F 71.6 °F 70% 29.84 in 10.0 mi SW 6.9 mph - N/A   Scattered Clouds
7:15 PM 82.4 °F 88.2 °F 73.4 °F 74% 29.82 in 10.0 mi SW 4.6 mph - N/A   Scattered Clouds
7:35 PM 80.6 °F 85.4 °F 73.4 °F 79% 29.82 in 10.0 mi SW 3.5 mph - N/A   Scattered Clouds
7:55 PM 78.8 °F - 73.4 °F 83% 29.83 in 10.0 mi West 3.5 mph - N/A   Scattered Clouds
8:15 PM 71.6 °F - 64.4 °F 78% 29.88 in 10.0 mi WNW 19.6 mph 24.2 mph N/A Rain Light Rain
8:35 PM 68.0 °F - 68.0 °F 100% 29.91 in 2.0 mi West 3.5 mph 20.7 mph 0.49 in Rain Heavy Rain
8:55 PM 68.0 °F - 68.0 °F 100% 29.90 in 7.0 mi SW 8.1 mph - 0.52 in Rain Light Rain
9:15 PM 68.0 °F - 68.0 °F 100% 29.89 in 7.0 mi SW 5.8 mph - 0.02 in Rain Rain
9:35 PM 68.0 °F - 68.0 °F 100% 29.90 in 7.0 mi SSW 4.6 mph - 0.07 in Rain Rain
9:55 PM 68.0 °F - 68.0 °F 100% 29.92 in 7.0 mi South 3.5 mph - 0.10 in Rain Light Rain
10:15 PM 68.0 °F - 68.0 °F 100% 29.95 in 10.0 mi Calm Calm - N/A   Mostly Cloudy
10:35 PM 68.0 °F - 68.0 °F 100% 29.96 in 10.0 mi Calm Calm - N/A   Scattered Clouds
10:55 PM 68.0 °F - 68.0 °F 100% 29.97 in 10.0 mi Calm Calm - N/A   Mostly Cloudy
11:15 PM 68.0 °F - 68.0 °F 100% 29.97 in 10.0 mi Calm Calm - N/A   Overcast
11:35 PM 68.0 °F - 68.0 °F 100% 29.98 in 10.0 mi Calm Calm - N/A   Mostly Cloudy
11:55 PM 68.0 °F - 68.0 °F 100% 29.98 in 10.0 mi Calm Calm - N/A   Scattered Clouds